ONEWEB-0577, 56066

Orbit data source: Space-Track

ONEWEB-0577, 56066 is a payload satellite owned by One Web (NAA) (UK) in LEO that was launched on Sun, 26 Mar 2023 UTC via a LVM3 launch vehicle from the Sirharikota (SRI). Payload-class satellites include a variety of spacecraft equipped with specific instruments for various scientific and technological missions. These include communications satellites like Starlink; space stations such as the ISS; scientific satellites like the Hubble; Earth observation satellites from companies like Planet Labs, Umbra, and HawkEye 360; GPS; miniature CubeSats for education and research; and military/defense satellites.

Loading next visibility...
Identifier
56066, 2023-043W
Orbit
LEO
Country
Flag of UKUK
Related business
Manufacturer
One Web
Mission
Operational Commercial Communications
Bus & Motor
ARROW, Unknown motor
Mass
148 kg wet, ~140 kg dry
Launch date (UTC)
2023-03-26 (3 years ago)
Launch vehicle
LVM3
Launch site
Sirharikota (SRI)
Object type
Payload
Rocket body
Debris
Shape & HBR
Trap Box + 2 Pan, 6.7 m
Radar Cross Section
3.464 m², Large (>1 m²)

Expand to show TLE details & history
Last TLE update: 2 days ago

TLE from 2 days ago
0 ONEWEB-0577
1 56066U 23043W   26171.18381684  .00000004  00000-0 -22535-4 0  9997
2 56066  87.9096 228.1778 0002128  75.4369 284.6997 13.16593923159389
Epoch: 2026-06-20T04:24Z
TLE epoch observation values (Epoch: 2026-06-20T04:24:41.774Z)
Latitude
-0.00013°
Longitude
-106.39835°
Altitude
1,200.246 km
Speed
7.254 km/s
True Right ascension
15h 12m 42s
True Declination
0° 00' 00"
Sunlit
Object was in full shadow at epoch
Visualization orbit readout
Latitude
Unknown
Longitude
Unknown
Altitude
Unknown
Speed
Unknown
Apparent Right ascension
Unknown
Apparent Declination
Unknown
Sunlit
N/A
Visualization observer readout
Local Sidereal Time
21:28:19
Azimuth
Unknown
Elevation
Unknown
Doppler factor
Unknown
Orbital elements
Apogee altitude
1,196.48 km
Perigee altitude
1,193.257 km
Semi-major axis
7,573.005 km
Eccentricity
0.00021
Inclination
87.9096°
RAAN
228.1778°
Arg. of periapsis
75.4369°
True anomaly
284.67611°
Mean anomaly
284.6997°
Eccentric anomaly
284.68791°
Mean motion
3.29337 °/min
Orbital period
109.31 mins
BSTAR
-0.000022535
Loading maneuver chart data...
Computing Atmospheric mass density...
Loading historical data...
Loading historical data...
Loading historical data...
Loading historical data...
Loading historical data...
Loading historical data...
Loading historical data...

Documentation

Showing up to 5 results
|